Home   Weather   Gävle   Past weeks

Flag for Sweden Past Weather in Gävle, Sweden — Yesterday and Last 2 Weeks

Now
56 °F

Passing clouds.


Feels Like: 56 °F
Forecast: 51 / 65 °F
Wind: 3 mph from Southwest

Location: Films Kyrkby

Current Time: Aug 20, 2017 at 8:18:27 am

Latest Report: Aug 20, 2017 at 7:00 am


Visibility: N/A

Pressure: 29.80 "Hg

Humidity: 83%

Dew Point: 51 °F

Location of GävleLocation

Past Weather in Gävle — Graph

°F

Gävle Temperature Yesterday

Maximum temperature yesterday: 68 °F (at 5:00 pm)
Minimum temperature yesterday: 53 °F (at 1:00 am)
Average temperature yesterday: 60 °F

High & Low Weather Summary for the Past Weeks

 TemperatureHumidityPressure
High78 °F (Aug 11, 3:00 pm)100% (Aug 7, 12:00 am)30.23 "Hg (Aug 7, 12:00 am)
Low42 °F (Aug 14, 5:00 am)32% (Aug 14, 6:00 pm)29.38 "Hg (Aug 5, 6:00 am)
Average60 °F80%29.89 "Hg
* Reported Aug 5 6:00 am — Aug 20 6:00 am, Gävle. Weather by CustomWeather, © 2017

Note: Actual official high and low records may vary slightly from our data, if they occured in-between our weather recording intervals... More about our weather records

Advertising

Gävle Weather History for the Previous 24 Hours

Scroll right to see more
 ConditionsComfort  
Time TempWeatherWind HumidityBarometerVisibility
6:00 am
Sun, Aug 20
52 °FSunny.2 mph90%29.79 "HgN/A
5:00 am52 °FClear.2 mph90%29.78 "HgN/A
4:00 am53 °FClear.3 mph85%29.78 "HgN/A
3:00 am54 °FClear.3 mph83%29.77 "HgN/A
2:00 am53 °FClear.2 mph85%29.78 "HgN/A
1:00 am54 °FClear.2 mph82%29.77 "HgN/A
12:00 am54 °FClear.3 mph81%29.77 "HgN/A
11:00 pm
Sat, Aug 19
55 °FClear.2 mph81%29.75 "HgN/A
10:00 pm58 °FClear.2 mph72%29.72 "HgN/A
9:00 pm57 °FClear.2 mph65%29.71 "HgN/A
8:00 pm62 °FSunny.2 mph55%29.69 "HgN/A
7:00 pm66 °FSunny.3 mph53%29.66 "HgN/A
6:00 pm67 °FSunny.5 mph51%29.65 "HgN/A
5:00 pm68 °FScattered clouds.5 mph60%29.62 "HgN/A
4:00 pm68 °FPassing clouds.5 mph67%29.59 "HgN/A
3:00 pm67 °FScattered clouds.5 mph73%29.57 "HgN/A
2:00 pm65 °FOvercast.3 mph87%29.54 "HgN/A
1:00 pm64 °FLow clouds.3 mph96%29.50 "HgN/A
12:00 pm63 °FLow clouds.3 mph98%29.47 "HgN/A
11:00 am61 °FLow clouds.3 mph96%29.50 "HgN/A
10:00 am61 °FLow clouds.5 mph97%29.55 "HgN/A
9:00 am61 °FLow clouds.3 mph100%29.59 "HgN/A
8:00 am58 °FLow clouds.2 mph100%29.64 "HgN/A
Weather by CustomWeather, © 2017

See weather overviewHow to use our weather pages